Location: Cornospital
(48.0620°N, 3.3837°W)
Time: 04:26:51
(UTC+00:00)

Cosmos 1000 Rocket - Visible Passes

Search period start: 17 October 2021 00:00
Search period end: 27 October 2021 00:00
Orbit: 953 x 993 km, 82.9° (Epoch: 16 October)

Date Brightness Start Highest point End Pass type
(mag) Time Alt. Az. Time Alt. Az. Time Alt. Az.
17 Oct 5.4 19:19:08 10° NNW 19:25:00 48° W 19:30:54 10° SSW visible
18 Oct 4.6 17:58:19 10° N 18:04:19 51° ENE 18:10:20 10° SSE visible
18 Oct 6.4 19:44:11 10° NNW 19:49:21 29° W 19:54:31 10° SW visible
19 Oct 7.4 05:49:41 10° ESE 05:53:02 15° ENE 05:56:24 10° NE visible
19 Oct 4.4 18:22:49 10° N 18:29:02 85° E 18:35:15 10° S visible
19 Oct 7.1 20:09:45 10° NW 20:13:31 17° W 20:17:19 10° WSW visible
20 Oct 5.1 18:47:32 10° NNW 18:53:35 58° W 18:59:37 10° S visible
21 Oct 6.1 19:12:30 10° NNW 19:17:57 35° W 19:23:28 10° SSW visible
22 Oct 7.6 05:19:23 10° E 05:21:45 12° ENE 05:24:07 10° NE visible
22 Oct 4.5 17:51:21 10° N 17:57:32 72° E 18:03:44 10° SSE visible
22 Oct 7.0 19:37:49 10° NW 19:42:12 21° W 19:46:36 10° SW visible
23 Oct 7.2 05:41:20 10° SE 05:45:50 22° E 05:50:20 10° NE visible
23 Oct 4.9 18:15:58 10° NNW 18:22:08 70° W 18:28:17 10° S visible
23 Oct 7.6 20:04:18 10° NW 20:06:16 12° WNW 20:08:15 10° W visible
24 Oct 6.3 06:04:33 10° SSE 06:10:05 37° E 06:15:37 10° NNE visible
24 Oct 5.8 18:40:51 10° NNW 18:46:34 41° W 18:52:20 10° SSW visible
25 Oct 6.8 19:06:01 10° NNW 19:10:51 25° W 19:15:44 10° SW visible
26 Oct 7.3 05:10:33 10° ESE 05:14:31 18° E 05:18:28 10° NE visible
26 Oct 4.6 17:44:27 10° N 17:50:40 83° W 17:56:54 10° S visible
26 Oct 7.5 19:31:52 10° NW 19:34:59 14° WNW 19:38:08 10° WSW visible
